Regional Weather Roundup
Issued by NWS Grand Forks, ND

Home | Current Version | Previous Version | Text Only | Print | Product List | Glossary Off
Versions: 1 2 3 4 5 6 7 8 9 10 11 12 13 14 15 16 17 18 19 20 21 22 23 24 25 26 27 28 29 30 31 32 33 34 35 36 37 38 39 40 41 42 43 44 45 46 47 48 49 50

344
ASUS43 KFGF 190610
RWRFGF
PRAIRIE TO PINES  WEATHER ROUNDUP
NATIONAL WEATHER SERVICE EASTERN NORTH DAKOTA/GRAND FORKS ND
1200 AM CST SUN NOV 19 2017

 **SATELLITE DATA USED TO AUGMENT SKY COVER AT AUTOMATED STATIONS**
 *****  WEATHER ACROSS EASTERN NORTH DAKOTA  *****

CITY           SKY/WX    TMP DP  RH WIND       PRES   REMARKS
GRAND FORKS    FAIR      12   6  77 W9        30.04S WCI   0
6HR MIN TEMP:  11; 6HR MAX TEMP:  17;

GRAND FRKS AFB CLEAR     12   6  75 W7        30.03F WCI   2
GRAND FRKS NWS   N/A     12 N/A N/A W9          N/A  WCI   0
DEVILS LAKE    FAIR      12   9  87 W7        30.00F WCI   1
6HR MIN TEMP:   9; 6HR MAX TEMP:  14;

FARGO          FAIR      14   9  80 W8        30.07S WCI   3
WAHPETON ARPT  NOT AVBL
$$

 ***** WEATHER ACROSS CENTRAL AND WESTERN NORTH DAKOTA  *****

CITY           SKY/WX    TMP DP  RH WIND       PRES   REMARKS
BISMARCK       FAIR      19  16  88 CALM      30.06S
6HR MIN TEMP:  16; 6HR MAX TEMP:  31;

MINOT          FAIR      22  16  78 CALM      29.96F
6HR MIN TEMP:  14; 6HR MAX TEMP:  26;

JAMESTOWN      FAIR      16  12  84 SW6       30.02F WCI   7
6HR MIN TEMP:  11; 6HR MAX TEMP:  19;

MINOT AFB      FAIR      18  13  82 W8        29.95F WCI   8
GARRISON         N/A     25  20  81 W8        29.98F WCI  16
WILLISTON      FAIR      26  19  74 W9        29.99F WCI  17
6HR MIN TEMP:  23; 6HR MAX TEMP:  29;

DICKINSON      FAIR      25  19  78 W9        30.00F WCI  15
6HR MIN TEMP:  22; 6HR MAX TEMP:  28;

HETTINGER      FAIR      22  17  81 NW7       30.08S WCI  13
6HR MIN TEMP:  16; 6HR MAX TEMP:  28;

$$

 *****  OTHER AIRPORT OBSERVATIONS IN OUR AREA  *****

CITY           SKY/WX    TMP DP  RH WIND       PRES   REMARKS
WALHALLA       FAIR      12   7  79 W7        30.00S WCI   2
GRAFTON AIRPOR NOT AVBL
VALLEY CITY AR NOT AVBL
CANDO          FAIR       7   5  92 W5        30.01F WCI  -2
CAVALIER APRT  FAIR      12   5  73 W9        30.00F WCI   0
GWINNER          N/A     14  10  85 W9        30.07R WCI   2
SHEYENNE NWR     N/A     10   6  85 W3        29.95
ROLLA          FAIR      10   5  79 SW9       29.95F WCI  -2
 ***** THE ABOVE OBSERVATIONS ARE NON NWS ARE NOT QUALITY
       CONTROLLED AND MAY MIS-REPORT RAIN FOR SNOW...
$$

  *****  WEATHER ACROSS NORTHERN MINNESOTA  *****

CITY           SKY/WX    TMP DP  RH WIND       PRES   REMARKS
FLAG ISLAND    FAIR       9   3  78 W10       29.94S WCI  -6
WARROAD        FAIR       7   3  85 W7        29.97S WCI  -5
ROSEAU         FAIR      10   5  79 W6        29.98S WCI   1
HALLOCK        FAIR       7   1  78 W5        30.01F WCI  -2
THF RVR FALLS  FAIR      10   5  80 W8        30.02S WCI  -2
6HR MIN TEMP:  10; 6HR MAX TEMP:  14;

BAUDETTE       FAIR       8   4  83 W6        29.95S WCI  -2
6HR MIN TEMP:   8; 6HR MAX TEMP:  15; 6HR PCP: TRACE;

WASKISH        FAIR      12   9  85 W8        29.98R WCI   1
CROOKSTON      FAIR      12   9  85 W5        30.05S WCI   4
STEPHEN NDAWN    N/A      9   1  72 SW3         N/A
GREENBUSH NDAW   N/A      9   3  78 SW7         N/A  WCI  -3
$$
  *****  WEATHER ACROSS CENTRAL AND WEST MINNESOTA  *****

CITY           SKY/WX    TMP DP  RH WIND       PRES   REMARKS
FOSSTON        FAIR       7   3  85 SW5       30.02S WCI  -2
BEMIDJI        FAIR       9   5  82 W7        29.98F WCI  -2
6HR MIN TEMP:   9; 6HR MAX TEMP:  15;

PARK RAPIDS    FAIR      11   6  81 W6        30.00R WCI   1
6HR MIN TEMP:  11; 6HR MAX TEMP:  15;

ELBOW LAKE     FAIR      10   8  88 SW5       30.07F FOG     WCI   2
WADENA         FAIR      12   7  79 W6        30.02S WCI   3
DETROIT LAKES  FAIR      16  10  79 W7        30.04R WCI   6
MOORHEAD       FAIR      12   7  79 CALM      30.08R
FERGUS FALLS   FAIR      12   7  79 CALM      30.10S
MORRIS MN      FAIR      16  10  79 W6        30.07S WCI   7
STAPLES        FAIR      12   7  79 NW9       30.02S WCI   0
$$
  *****  WEATHER ELSEWHERE ACROSS MINNESOTA  *****

CITY           SKY/WX    TMP DP  RH WIND       PRES   REMARKS
DULUTH         FLURRIES  15   9  76 NW18G24   29.91R WCI  -2
6HR MIN TEMP:  15; 6HR MAX TEMP:  21; 6HR PCP: TRACE;

INTRNTL FALLS  FLURRIES  13   6  74 W9        29.94R WCI   1
6HR MIN TEMP:  13; 6HR MAX TEMP:  16; 6HR PCP: TRACE;

ELY            FLURRIES  12   7  79 NW7       29.90R WCI   2
CLOQUET        FAIR      16   7  67 NW10G18   29.94R WCI   3
WHEATON        FAIR      16  10  79 CALM      30.11S
BRAINERD       FAIR      17   8  67 NW12G18   30.01S WCI   4
6HR MIN TEMP:  17; 6HR MAX TEMP:  20;

HIBBING        MOCLDY    12   5  73 NW12      29.94R WCI  -2
6HR MIN TEMP:  12; 6HR MAX TEMP:  16; 6HR PCP: TRACE;

ALEXANDRIA     FAIR      15  10  80 W9        30.04S WCI   3
6HR MIN TEMP:  15; 6HR MAX TEMP:  20;

SAINT CLOUD    FAIR      17  10  74 NW7       30.04R WCI   8
6HR MIN TEMP:  17; 6HR MAX TEMP:  21;

MINNEAPOLIS    MOCLDY    21  11  65 NW12      30.04F WCI   9
6HR MIN TEMP:  21; 6HR MAX TEMP:  28;

$$

  *****  WEATHER ACROSS SOUTH DAKOTA  *****

CITY           SKY/WX    TMP DP  RH WIND       PRES   REMARKS
SIOUX FALLS    FAIR      24  16  71 W7        30.13F WCI  16
6HR MIN TEMP:  23; 6HR MAX TEMP:  31;

BROOKINGS      FAIR      20  14  77 NW6       30.11R WCI  12
WATERTOWN      FAIR      22  17  81 W8        30.07S WCI  12
6HR MIN TEMP:  15; 6HR MAX TEMP:  24;

HURON          FAIR      21  15  78 W9        30.14S WCI  11
6HR MIN TEMP:  18; 6HR MAX TEMP:  25;

SISSETON         N/A     19  13  77 W7        30.07F WCI  10
ABERDEEN       FAIR      13  11  92 SW5       30.11R WCI   5
6HR MIN TEMP:  12; 6HR MAX TEMP:  25;

MITCHELL       FAIR      23  17  78 SW9       30.17F WCI  13
PIERRE         FAIR      26  22  84 SW8       30.12S WCI  18
6HR MIN TEMP:  21; 6HR MAX TEMP:  29;

MOBRIDGE       FAIR      19  14  81 CALM      30.07R
RAPID CITY     FAIR      23  15  71 CALM      30.13F
6HR MIN TEMP:  20; 6HR MAX TEMP:  33;

$$

  *****  SOME WEATHER IN NEARBY STATES *****

CITY           SKY/WX    TMP DP  RH WIND       PRES   REMARKS
GLASGOW MT     FAIR      29  20  69 CALM      29.96F
6HR MIN TEMP:  24; 6HR MAX TEMP:  35;

GREAT FALLS MT FAIR      39  13  34 SW24      29.98F
6HR MIN TEMP:  34; 6HR MAX TEMP:  40;

CHEYENNE WY    FAIR      33   9  36 SW6       30.21R
6HR MIN TEMP:  27; 6HR MAX TEMP:  34;

SCOTTSBLUFF NE FAIR      22  15  75 NW5       30.21F WCI  16
6HR MIN TEMP:  19; 6HR MAX TEMP:  37;

OMAHA NE       FAIR      29  21  72 NW8       30.20S WCI  21
6HR MIN TEMP:  29; 6HR MAX TEMP:  38;

DES MOINES IA  FAIR      30  19  63 NW14      30.12R WCI  19
6HR MIN TEMP:  30; 6HR MAX TEMP:  38;

DAVENPORT IA   FAIR      28  22  78 NW10      30.00R WCI  19
6HR MIN TEMP:  28; 6HR MAX TEMP:  38;

CHICAGO IL     CLOUDY    38  26  62 NW20G29   29.84R
6HR MIN TEMP:  38; 6HR MAX TEMP:  40;

EAU CLAIRE WI  MOCLDY    22  12  65 NW17G24   29.98R WCI   8
6HR MIN TEMP:  22; 6HR MAX TEMP:  30;

LA CROSSE WI   CLOUDY    28  16  60 NW22G30   29.97R WCI  14
6HR MIN TEMP:  28; 6HR MAX TEMP:  38;

$$

  *****  SOME NATIONAL WEATHER *****

CITY           SKY/WX    TMP DP  RH WIND       PRES   REMARKS
LA GUARDIA NY  MOCLDY    57  50  77 S9        29.36F
6HR MIN TEMP:  50; 6HR MAX TEMP:  57; 6HR PCP:  0.03;

RALEIGH NC     CLOUDY    63  52  67 SW20G37   29.58F
6HR MIN TEMP:  61; 6HR MAX TEMP:  63;

ATLANTA GA     LGT RAIN  53  50  89 NW20G36   29.80R
6HR MIN TEMP:  53; 6HR MAX TEMP:  69; 6HR PCP:  0.30;

NEW ORLEANS LA CLOUDY    63  49  60 N17G35    30.03R
6HR MIN TEMP:  63; 6HR MAX TEMP:  77; 6HR PCP: TRACE;

OKLAHOMA CITY  FAIR      38  27  64 NW7       30.29S
6HR MIN TEMP:  38; 6HR MAX TEMP:  48;

ALBUQUERQUE NM FAIR      36   5  27 CALM      30.35R
6HR MIN TEMP:  34; 6HR MAX TEMP:  50;

SALT LAKE CITY FAIR      32  24  72 S7        30.34F
6HR MIN TEMP:  32; 6HR MAX TEMP:  40;

LOS ANGELES CA FAIR



USA.gov is the U.S. government's official web portal to all federal, state and local government web resources and services.